Погода в Вежъю

Россия / Республика Коми     60°38′57″N   51°08′33″E
темп.,
°C
ветер,
м/с
пор.,
м/с
влажн.,
%
обл.,
%
осадки,
мм/ч
давл.,
гПа
погр.,
м
16 мая, вс
вс1600:00+14вюв2596100 6.7 1012178
03:00+15ю31097100 6.7 1012282
06:00+17ююз3138650 0.0 1011480
09:00+22юз510639 0.0 10111103
12:00+24юз610521 0.1 10111946
15:00+24юз5104997 0.1 10101874
18:00+22юз38520 0.0 1009527
21:00+15ююз39852 0.3 1011171
17 мая, пн
пн1700:00+14ююз29930 0.0 1010232
03:00+13юз311930 0.0 1011289
06:00+16юз49805 0.0 1012588
09:00+20зюз695853 0.1 10121575
12:00+20зсз5956100 0.5 10131756
15:00+18зсз586269 0.9 10151167
18:00+16зсз476899 0.1 1016867
21:00+13ссз388510 0.1 1019505
18 мая, вт
вт1800:00+12с3783100 0.0 1020508
03:00+9ссв259653 0.1 1022135
06:00+11св24747 0.0 1023465
09:00+16св234920 0.0 1023890
12:00+20всв223788 0.0 10231212
15:00+22вюв123344 0.0 10221411
18:00+20вюв12465 0.0 102255
21:00+14юв236411 0.0 102343
19 мая, ср
ср1900:00+12юв257299 0.0 102384
03:00+10ююв267624 0.0 1023107
06:00+15ю376292 0.0 1023259
09:00+21ю354550 0.0 1022909
12:00+24ююз453799 0.0 10211439
15:00+25ююз453396 0.0 10201609
18:00+22ю2747100 0.0 1019235
21:00+17ю286599 0.0 1019147
20 мая, чт
чт2000:00+14ююз257253 0.0 101996
03:00+12ю26765 0.0 1019108
06:00+17ююз35590 0.0 1019241
09:00+23ююз35414 0.0 10181005
12:00+27ююз45325 0.0 10161891
15:00+27ююз45281 0.0 10152246
18:00+25ю37380 0.0 1015363
21:00+17ю310605 0.0 1015171